Tracking 23610 objects as of 19-Sep-2021
HD Live streaming from Space Station
objects crossing your sky now

RADUGA 26

Track RADUGA 26 now!
RADUGA 26 is classified as:


NORAD ID: 21016
Int'l Code: 1990-112A
Perigee: 35,773.7 km
Apogee: 35,841.2 km
Inclination: 14.3 °
Period: 1,436.8 minutes
Semi major axis: 42178 km
RCS: 2.5118 m2 (large)
Launch date: December 20, 1990
Source: Commonwealth of Independent States (former USSR) (CIS)
Launch site: TYURATAM MISSILE AND SPACE COMPLEX (TTMTR)
aabbcc
Your satellite tracking list
Your tracking list is empty




NASA's NSSDC Master Catalog

Two Line Element Set (TLE):
1 21016U 90112A   21261.73989260 -.00000127  00000-0  00000-0 0  9990
2 21016  14.3455 351.0748 0008004  76.9894 272.6593  1.00223026112887
Source of the keplerian elements: AFSPC